CAPE
0 0 0 0 0 0 0 0 0 0 0 0 0 56 331 989 1302 1074 718 288 14 281 78 24 364 754 223 57 111 309 834 843 654 533 562 512 596 347 208 142 107 161 104 73
0 0 0 0 0 0 0 0 0 0 0 0 0 13 15 525 574 597 804 22 19 179 102 124 2 67 52 30 75 223 295 762 677 509 446 335 117 87 18 7 24 36 87 118
0 0 0 0 0 0 0 0 0 0 0 0 0 0 8 143 328 182 307 0 148 224 150 147 0 0 26 86 187 103 41 138 692 593 165 135 54 0 0 0 7 2 40 122
0 0 0 0 0 0 0 0 0 0 0 0 0 0 0 0 10 299 201 0 3 82 209 71 0 0 1 61 76 1 26 422 493 255 174 134 95 40 0 0 0 0 0 3
0 0 0 0 0 0 0 0 0 0 0 0 0 0 0 0 0 1 183 97 0 0 205 107 16 3 1 8 12 0 198 412 318 189 57 27 0 0 0 0 0 0 0 0
0 0 0 0 0 0 0 0 0 0 0 0 0 0 0 0 0 0 0 27 0 0 104 274 69 0 0 0 4 34 212 337 206 14 0 0 0 0 0 0 1 0 0 0
0 0 0 0 0 0 0 0 0 0 0 0 0 0 0 0 0 0 0 3 0 442 513 93 145 4 0 0 0 0 359 250 11 0 0 0 0 0 1 4 2 1 0 0
0 0 0 0 0 0 0 0 0 0 0 0 0 0 0 6 718 210 60 276 820 769 1054 298 40 2 0 9 604 741 177 75 0 0 0 0 0 0 0 0 0 1 1 1
0 0 0 0 0 0 0 0 0 0 0 0 0 0 0 449 824 1141 904 647 513 644 309 1029 798 117 218 574 788 382 125 34 12 0 0 0 0 0 0 0 0 0 0 26
0 0 0 0 0 0 0 0 0 0 0 0 0 0 0 384 722 1127 852 532 165 49 254 834 1194 1342 995 656 447 256 101 83 36 0 0 0 0 0 0 0 0 0 0 1
0 0 0 0 0 0 0 0 0 0 0 0 0 0 0 11 487 889 413 61 0 0 0 447 576 986 778 534 269 194 97 59 21 0 0 0 0 0 0 0 0 0 0 1
0 0 0 0 0 0 0 0 0 0 0 0 0 0 0 0 82 225 502 9 0 6 243 442 429 577 372 385 229 163 79 28 11 0 0 0 0 0 0 0 0 0 1 2
0 0 0 0 0 0 0 0 0 0 0 0 0 0 7 0 67 10 27 78 116 466 335 380 477 684 298 297 222 131 46 48 31 5 0 0 0 0 0 0 0 0 0 2
0 0 0 0 0 0 0 0 0 0 0 0 0 0 0 3 11 129 397 90 235 293 316 355 495 272 213 212 225 132 74 88 31 26 0 0 0 0 0 0 0 1 1 0
0 0 0 0 0 0 0 0 0 0 0 0 0 0 0 1 0 27 360 707 455 535 326 163 236 105 155 139 153 126 111 122 57 69 3 1 0 0 0 0 1 3 1 1
0 0 0 0 0 0 2 0 0 0 0 0 0 0 0 0 0 0 483 609 412 519 369 104 152 98 195 165 65 36 46 114 67 35 30 29 10 10 1 2 1 0 0 0
16 0 0 0 0 0 0 0 4 35 0 0 48 2 0 0 0 6 57 315 278 271 154 96 104 121 76 50 21 6 0 21 98 10 19 2 31 12 1 1 0 0 0 0
8 0 0 0 0 0 0 0 4 20 145 69 84 0 0 6 3 7 5 6 46 27 45 45 2 1 0 0 0 0 0 0 45 54 32 13 1 1 1 1 0 0 0 0
0 0 3 0 0 0 4 210 517 241 32 526 5 9 34 168 171 219 95 29 39 32 2 1 0 0 0 0 0 1 0 1 0 1 0 0 1 1 0 0 0 0 0 0
0 0 0 0 7 0 0 156 348 260 53 447 280 0 65 137 119 48 1 0 0 2 2 2 3 1 3 3 2 0 1 1 1 1 1 1 2 1 0 0 0 0 0 0
0 0 0 0 0 0 5 164 138 41 18 276 9 5 0 1 1 5 2 2 3 3 4 7 8 4 2 0 0 0 1 2 2 0 0 0 1 1 0 0 0 0 0 0
0 0 0 0 0 0 0 286 223 71 451 22 0 1 2 2 3 2 2 2 2 3 3 2 4 2 2 0 0 2 1 2 1 1 1 1 1 1 0 0 1 0 0 0
0 0 0 0 0 0 0 13 30 159 282 0 0 2 0 1 1 0 0 0 0 0 3 7 3 2 1 1 1 1 3 1 1 1 1 1 1 1 2 6 2 2 0 0
0 0 9 5 0 1 0 0 0 0 204 0 0 0 0 0 0 0 0 0 0 0 2 1 2 3 2 1 1 2 2 1 1 1 1 1 1 1 1 1 1 1 1 1
0 0 0 15 33 19 8 30 0 0 0 0 0 0 0 0 0 0 0 0 1 0 0 0 1 2 3 0 0 0 0 0 0 1 1 1 1 0 0 0 1 0 0 0
1 23 52 69 7 11 0 51 59 2 0 0 0 0 0 0 0 0 1 0 0 0 0 1 1 2 1 0 0 0 0 0 0 0 0 0 0 0 0 0 0 0 0 0
CIN
-0 -0 -0 -0 -0 -0 -0 -0 -0 -0 -0 -0 -0 -257 -380 -405 -337 -363 -407 -449 -404 -575 -637 -743 -470 -226 -430 -542 -435 -385 -257 -187 -198 -190 -182 -176 -143 -202 -231 -250 -234 -194 -236 -243
-0 -0 -0 -0 -0 -0 -0 -0 -0 -0 -0 -0 -0 -235 -153 -463 -493 -474 -396 -344 -676 -659 -622 -532 -352 -498 -547 -536 -403 -314 -364 -191 -196 -222 -221 -223 -274 -274 -231 -316 -279 -235 -177 -161
-0 -0 -0 -0 -0 -0 -0 -0 -0 -0 -0 -0 -0 -0 -403 -494 -567 -601 -481 -0 -579 -608 -582 -473 -0 -0 -644 -472 -356 -466 -470 -359 -189 -179 -284 -283 -304 -0 -0 -0 -115 -102 -151 -95
-0 -0 -0 -0 -0 -0 -0 -0 -0 -0 -0 -0 -0 -0 -0 -0 -60 -564 -602 -0 -70 -592 -473 -478 -0 -0 -105 -454 -466 -102 -419 -254 -224 -289 -263 -259 -267 -257 -0 -0 -0 -0 -0 -24
-0 -0 -0 -0 -0 -0 -0 -0 -0 -0 -0 -0 -0 -0 -0 -0 -0 -426 -543 -558 -16 -0 -488 -456 -525 -508 -107 -475 -147 -32 -310 -207 -245 -264 -314 -317 -0 -0 -0 -0 -0 -0 -0 -0
-0 -0 -0 -0 -0 -0 -0 -0 -0 -0 -0 -0 -0 -0 -0 -0 -0 -0 -0 -607 -0 -0 -577 -480 -537 -0 -0 -0 -316 -366 -234 -218 -263 -291 -0 -0 -0 -0 -0 -0 -0 -0 -0 -0
-0 -0 -0 -0 -0 -0 -0 -0 -0 -0 -0 -0 -0 -0 -0 -0 -0 -0 -0 -212 -0 -521 -431 -570 -485 -441 -0 -0 -0 -0 -196 -198 -152 -0 -0 -0 -0 -0 -0 -20 -0 -0 -0 -0
-0 -0 -0 -0 -0 -0 -0 -0 -0 -0 -0 -0 -0 -0 -0 -550 -468 -617 -629 -583 -483 -449 -398 -491 -622 -122 -0 -469 -163 -112 -198 -251 -0 -0 -0 -0 -0 -0 -0 -0 -0 -0 -0 -0
-0 -0 -0 -0 -0 -0 -0 -0 -0 -0 -0 -0 -0 -0 -0 -477 -438 -408 -482 -514 -490 -298 -558 -375 -362 -448 -385 -203 -137 -204 -269 -320 -366 -0 -0 -0 -0 -0 -0 -0 -0 -0 -0 -99
-0 -0 -0 -0 -0 -0 -0 -0 -0 -0 -0 -0 -0 -0 -0 -361 -422 -403 -463 -482 -591 -651 -646 -381 -254 -177 -199 -284 -250 -294 -337 -311 -352 -0 -0 -0 -0 -0 -0 -0 -0 -0 -0 -0
-0 -0 -0 -0 -0 -0 -0 -0 -0 -0 -0 -0 -0 -0 -0 -98 -492 -499 -560 -541 -0 -0 -0 -444 -299 -162 -178 -285 -293 -314 -338 -333 -339 -0 -0 -0 -0 -0 -0 -0 -0 -0 -0 -0
-0 -0 -0 -0 -0 -0 -0 -0 -0 -0 -0 -0 -0 -0 -0 -0 -616 -621 -542 -629 -0 -636 -483 -396 -253 -271 -205 -232 -294 -295 -352 -338 -296 -0 -0 -0 -0 -0 -0 -0 -0 -0 -0 -0
-0 -0 -0 -0 -0 -0 -0 -0 -0 -0 -0 -0 -0 -0 -773 -0 -624 -156 -485 -597 -631 -435 -411 -350 -224 -193 -203 -211 -250 -304 -329 -283 -275 -346 -0 -0 -0 -0 -0 -0 -0 -0 -0 -0
-0 -0 -0 -0 -0 -0 -0 -0 -0 -0 -0 -0 -0 -0 -0 -198 -306 -648 -543 -718 -572 -475 -390 -309 -219 -247 -239 -225 -236 -259 -286 -266 -286 -316 -0 -0 -0 -0 -0 -0 -0 -0 -0 -0
-0 -0 -0 -0 -0 -0 -0 -0 -0 -0 -0 -0 -0 -0 -0 -35 -0 -786 -586 -453 -464 -438 -393 -359 -273 -288 -280 -282 -270 -264 -266 -242 -273 -246 -219 -97 -0 -0 -0 -0 -0 -0 -0 -0
-0 -0 -0 -0 -0 -0 -127 -0 -0 -0 -0 -0 -0 -0 -0 -0 -0 -14 -569 -509 -545 -464 -374 -487 -348 -330 -279 -297 -351 -337 -307 -227 -230 -213 -229 -260 -284 -178 -0 -0 -0 -0 -0 -0
-246 -0 -0 -0 -0 -0 -0 -0 -71 -114 -6 -33 -62 -20 -0 -0 -0 -787 -726 -608 -577 -507 -482 -459 -387 -382 -420 -467 -319 -437 -0 -346 -199 -208 -208 -68 -196 -186 -0 -0 -0 -0 -0 -0
-156 -0 -0 -0 -0 -0 -0 -0 -179 -161 -158 -269 -174 -45 -0 -797 -767 -882 -851 -851 -673 -673 -564 -509 -89 -0 -0 -0 -0 -0 -0 -0 -255 -149 -222 -230 -0 -0 -0 -0 -0 -0 -0 -0
-0 -0 -34 -0 -0 -0 -76 -238 -223 -193 -122 -450 -459 -480 -774 -746 -642 -596 -684 -599 -685 -689 -0 -0 -0 -0 -0 -0 -0 -0 -0 -0 -0 -0 -0 -0 -0 -0 -0 -0 -0 -0 -0 -0
-0 -0 -0 -0 -73 -0 -0 -336 -416 -433 -93 -468 -526 -0 -580 -511 -401 -583 -0 -0 -0 -0 -0 -0 -0 -0 -0 -0 -0 -0 -0 -0 -0 -0 -0 -0 -0 -0 -0 -0 -0 -0 -0 -0
-0 -0 -0 -0 -0 -0 -115 -407 -470 -46 -111 -490 -181 -101 -0 -0 -0 -0 -0 -0 -0 -0 -0 -0 -0 -0 -0 -0 -0 -0 -0 -0 -0 -0 -0 -0 -0 -0 -0 -0 -0 -0 -0 -0
-0 -0 -0 -0 -0 -0 -0 -325 -77 -266 -341 -475 -0 -0 -0 -0 -0 -0 -0 -0 -0 -0 -0 -0 -0 -0 -0 -0 -0 -0 -0 -0 -0 -0 -0 -0 -0 -0 -0 -0 -0 -0 -0 -0
-0 -0 -0 -0 -0 -0 -0 -36 -414 -365 -328 -0 -0 -0 -0 -0 -0 -0 -0 -0 -0 -0 -0 -0 -0 -0 -0 -0 -0 -0 -0 -0 -0 -0 -0 -0 -0 -0 -0 -0 -0 -0 -0 -0
-0 -0 -129 -34 -0 -18 -6 -0 -0 -0 -323 -0 -0 -0 -0 -0 -0 -0 -0 -0 -0 -0 -0 -0 -0 -0 -0 -0 -0 -0 -0 -0 -0 -0 -0 -0 -0 -0 -0 -0 -0 -0 -0 -0
-0 -0 -0 -200 -238 -265 -147 -253 -0 -0 -0 -0 -0 -0 -0 -0 -0 -0 -0 -0 -0 -0 -0 -0 -0 -0 -0 -0 -0 -0 -0 -0 -0 -0 -0 -0 -0 -0 -0 -0 -0 -0 -0 -0
-20 -182 -130 -83 -62 -51 -0 -261 -264 -80 -0 -0 -0 -0 -0 -0 -0 -0 -0 -0 -0 -0 -0 -0 -0 -0 -0 -0 -0 -0 -0 -0 -0 -0 -0 -0 -0 -0 -0 -0 -0 -0 -0 -0
Wind_Speed
2 4 6 8 5 3 1 1 3 6 9 3 6 5 5 4 4 6 6 5 5 5 3 5 6 4 7 8 5 6 5 2 3 2 1 2 3 2 2 3 4 6 7 7
5 6 10 4 4 3 2 2 6 8 5 4 1 5 4 3 2 5 9 4 5 1 2 6 6 6 4 4 3 6 8 3 2 2 2 1 1 0 2 3 3 5 6 6
7 2 6 6 3 4 3 5 5 7 4 3 6 3 5 2 0 2 8 2 3 6 4 6 7 9 7 2 7 7 7 5 3 1 2 0 1 1 2 2 3 3 5 6
5 4 5 4 4 7 2 6 6 5 3 3 2 4 5 2 6 6 10 5 3 4 2 4 5 7 5 6 7 7 3 4 2 4 3 2 1 1 2 2 3 4 4 5
8 3 3 3 5 6 8 4 4 3 4 3 3 5 7 5 7 6 8 8 5 5 5 7 6 6 1 5 8 5 4 3 0 2 4 2 2 1 2 3 5 5 4 5
6 2 4 7 3 7 5 3 7 5 4 4 2 5 7 4 6 3 4 5 8 9 9 8 9 8 7 5 6 8 5 1 2 2 4 4 3 4 3 3 4 4 3 3
4 6 4 6 4 0 5 7 4 4 5 6 2 1 10 3 3 3 3 8 8 6 6 8 9 11 11 10 10 9 6 5 6 5 6 1 2 3 3 4 3 6 4 2
3 8 5 3 9 8 6 8 7 5 4 4 2 4 5 1 5 3 9 8 7 8 7 10 11 11 11 9 10 10 8 5 5 6 4 2 2 2 2 3 2 3 3 4
5 6 5 5 4 8 3 3 4 9 4 3 4 7 2 3 4 3 7 8 9 11 8 5 8 9 13 12 10 10 7 6 5 4 3 3 1 3 3 4 3 2 3 4
6 2 3 5 2 4 4 6 4 3 5 3 6 6 7 7 8 7 9 11 10 5 9 6 3 4 4 9 6 8 7 6 4 4 3 2 1 3 3 4 5 5 5 6
7 5 5 4 2 7 1 1 6 6 4 7 2 8 8 13 15 16 10 10 3 6 3 8 5 3 2 7 7 5 6 5 4 3 3 3 1 3 3 3 4 5 5 7
5 5 4 12 5 1 3 6 7 6 4 2 4 9 3 5 8 9 12 9 4 4 5 7 5 8 1 3 6 5 4 5 5 4 4 3 2 2 4 4 5 5 7 8
7 2 2 10 7 1 5 4 5 6 4 6 7 9 3 1 7 8 8 6 3 5 8 7 7 7 4 4 4 5 5 5 5 5 4 3 1 3 3 4 4 6 7 8
8 3 8 9 9 3 2 4 5 6 5 6 7 6 4 8 10 8 7 9 5 4 5 5 3 6 6 4 4 4 5 5 4 4 4 4 4 3 3 4 5 7 7 8
4 4 4 4 5 5 4 4 6 5 5 6 3 7 7 15 19 14 9 7 8 8 8 7 7 5 6 5 5 5 5 4 4 5 5 5 4 4 5 6 6 7 7 7
3 2 2 2 2 3 4 6 7 5 4 3 3 7 6 5 8 7 8 9 10 10 8 5 7 8 6 6 5 5 5 4 5 6 6 3 4 7 7 7 7 7 7 7
2 3 3 3 3 2 4 7 5 4 3 6 3 7 5 3 7 8 9 11 12 11 7 6 5 3 4 5 5 6 4 4 5 5 4 5 6 7 8 8 7 7 7 6
4 4 2 3 2 2 8 4 3 3 1 1 4 2 6 4 4 5 5 8 9 9 8 8 7 7 4 3 4 3 3 3 5 6 6 9 9 9 8 8 8 6 6 6
3 5 3 4 4 5 3 4 5 4 3 3 4 3 1 6 6 4 7 6 4 8 8 7 5 3 4 4 3 5 4 2 2 1 5 8 11 10 10 9 8 6 7 6
5 3 5 3 4 7 6 4 4 2 5 4 4 2 2 4 5 3 8 11 13 11 8 8 7 6 5 5 7 5 3 1 2 3 2 6 9 10 11 10 9 5 6 6
3 3 6 3 3 6 2 7 4 4 7 4 3 7 6 5 3 7 12 13 13 10 10 6 7 5 5 5 5 5 3 4 5 5 5 7 7 8 9 8 7 8 9 8
6 7 4 2 2 6 4 1 2 2 3 3 11 14 17 13 10 13 14 15 14 13 11 9 6 6 6 5 6 5 4 4 5 6 8 7 9 8 8 11 8 7 8 10
1 4 5 7 6 3 3 2 4 4 1 3 11 14 18 16 14 13 13 13 12 13 5 4 3 4 6 5 4 4 2 3 6 8 8 8 10 9 9 8 8 6 6 6
2 2 3 2 3 3 5 5 3 3 4 4 8 11 13 16 14 11 11 12 15 18 9 3 2 3 3 4 3 3 4 4 7 9 8 8 9 8 8 7 5 4 4 5
4 3 4 2 4 4 5 4 3 1 1 5 6 3 4 9 7 3 2 3 7 14 11 5 4 3 3 3 4 4 5 6 8 8 7 8 7 8 7 7 4 4 3 4
3 5 5 6 6 4 4 3 2 3 2 1 2 3 4 4 6 8 8 7 9 12 9 7 6 5 5 4 4 4 5 6 8 8 7 6 6 6 6 7 7 16 11 11
Wind_Direction
29 83 217 219 182 169 303 152 254 260 263 192 230 268 205 132 169 230 233 208 168 212 225 277 269 129 108 75 68 59 70 289 129 134 157 228 228 228 245 240 247 238 224 214
24 244 228 191 172 208 252 311 270 281 293 108 217 276 339 150 235 226 239 176 194 235 261 283 331 69 70 81 63 45 45 358 227 150 127 116 310 278 292 298 296 278 264 240
169 236 107 166 185 188 227 206 248 222 354 36 134 297 306 327 132 238 260 144 199 206 202 273 45 30 21 234 172 56 11 330 301 233 48 282 9 7 332 305 287 254 251 238
224 242 210 191 219 160 251 207 247 276 70 234 37 274 305 313 280 206 245 236 159 244 89 278 58 59 333 340 337 82 221 303 274 150 181 83 182 335 207 237 253 278 255 252
242 191 158 176 204 161 234 137 197 243 162 92 340 82 266 342 289 246 239 229 118 182 195 229 142 131 124 290 287 34 7 305 84 200 97 94 20 264 307 313 301 292 272 242
230 227 184 207 181 180 274 98 44 45 78 40 256 133 282 215 229 350 262 158 179 175 197 201 143 151 170 234 269 267 291 246 185 167 84 57 4 339 332 311 335 315 305 296
314 244 229 186 262 110 96 65 342 2 14 214 244 77 236 284 294 249 184 184 178 149 151 174 173 164 172 195 207 235 203 179 194 130 85 41 9 329 338 349 345 318 328 314
161 323 183 190 188 173 179 152 155 195 191 248 297 229 259 8 340 352 145 156 147 169 188 180 172 169 185 192 198 204 175 181 155 109 132 104 32 3 4 341 338 321 313 292
156 272 283 215 184 143 176 179 167 105 3 60 265 290 17 85 30 89 144 160 188 199 164 143 138 173 176 177 178 161 153 160 135 139 137 107 58 35 6 351 356 344 327 327
206 294 253 285 87 58 152 152 84 5 132 211 300 288 238 208 198 209 189 188 218 232 109 58 93 167 171 132 135 146 146 150 149 168 163 141 94 32 7 3 5 5 353 9
142 137 262 31 197 187 102 206 63 117 111 155 169 265 218 200 191 190 193 208 188 308 358 88 66 36 105 123 129 135 137 135 159 200 177 144 99 46 32 13 6 6 11 18
201 152 199 219 231 224 194 202 137 125 221 86 139 270 306 254 177 189 201 220 111 130 120 110 117 87 263 139 133 150 138 161 190 187 172 144 104 43 44 26 15 25 30 34
176 238 14 341 355 306 205 165 117 113 86 183 133 262 345 286 191 201 208 254 176 142 102 108 121 139 195 175 154 158 170 193 185 172 159 160 138 87 68 50 33 41 42 42
95 142 166 185 204 185 153 166 159 134 110 163 218 258 231 232 225 211 199 209 178 121 132 144 197 147 163 191 162 173 193 188 184 172 176 179 191 156 118 80 64 58 49 54
133 186 188 238 238 206 226 205 178 178 166 153 228 211 254 215 210 200 205 158 150 164 177 145 165 190 169 175 164 179 209 195 163 182 194 207 172 145 122 98 80 71 62 60
332 189 152 348 352 219 229 187 207 250 153 261 187 257 248 278 122 151 191 165 169 184 191 155 172 173 166 178 183 200 201 203 175 197 197 197 149 143 126 111 97 74 54 46
34 115 79 250 349 6 343 236 192 216 187 149 172 227 158 241 184 170 194 187 181 183 167 156 153 126 136 128 152 178 171 182 194 200 191 141 137 131 124 114 96 81 68 60
133 97 69 194 33 224 239 307 255 232 178 32 312 312 206 195 97 115 175 169 167 152 138 144 133 128 126 126 118 140 121 148 193 205 173 151 147 138 116 110 103 95 88 74
143 120 107 147 192 276 312 19 31 29 285 13 318 28 281 131 89 49 4 39 74 101 112 114 79 80 79 70 69 93 87 77 110 153 177 168 156 143 129 125 119 109 105 88
76 74 122 143 166 201 237 312 27 247 290 36 347 105 130 326 150 75 53 65 67 55 67 91 83 74 64 32 52 73 64 72 51 13 318 161 158 149 133 132 128 107 106 102
84 34 156 171 200 278 261 299 303 162 235 17 58 88 78 77 71 101 85 74 78 77 72 53 67 77 59 53 84 88 73 47 20 32 27 90 101 108 110 103 106 111 107 97
163 144 178 91 108 268 15 274 171 246 18 110 112 117 107 107 97 89 84 76 61 52 42 36 38 41 31 46 80 79 63 46 57 55 53 68 91 97 97 106 104 102 109 101
170 169 184 172 214 266 316 276 312 294 260 173 138 139 132 133 135 134 135 132 128 115 68 349 35 38 40 36 56 92 60 83 89 84 80 77 80 84 86 91 88 98 96 109
347 168 113 75 269 314 316 300 287 311 271 159 173 158 155 148 161 160 152 160 157 135 134 140 122 85 63 51 69 93 98 94 99 100 97 89 85 82 84 79 81 98 103 103
213 134 145 291 286 308 248 254 299 349 56 126 159 178 184 158 139 114 75 52 80 91 103 136 138 127 106 90 77 77 99 109 96 93 93 88 86 90 85 71 57 82 45 123
191 181 164 214 222 158 239 216 207 235 200 133 113 99 42 78 90 115 122 109 106 105 128 146 135 138 134 132 114 94 90 103 108 101 94 98 105 104 103 104 86 47 58 73